| time (UTC) | temp F | wind direction | speed MPH | gust MPH | rain 1hr in | rain 24hr in | rain mn in | humidity % | barometer mb |
| 20260906211003 | 88 | 242 | 0.0 | 5.0 | 0.00 | 0.00 | 0.00 | 35 | 958.1 |
| 20260906205004 | 87 | 279 | 1.0 | 3.0 | 0.00 | 0.00 | 0.00 | 40 | 847.5 |
| 20260906160004 | 60 | 144 | 0.0 | 0.0 | 0.00 | 0.00 | 0.00 | 46 | 847.5 |
| 20260906155003 | 60 | 144 | 0.0 | 0.0 | 0.00 | 0.00 | 0.00 | 46 | 847.5 |
| 20260906154004 | 58 | 144 | 0.0 | 0.0 | 0.00 | 0.00 | 0.00 | 48 | 847.5 |
| 20260906153004 | 58 | 156 | 0.0 | 0.0 | 0.00 | 0.00 | 0.00 | 50 | 847.5 |
| 20260906152004 | 57 | 250 | 0.0 | 0.0 | 0.00 | 0.00 | 0.00 | 52 | 847.5 |
| 20260906151004 | 57 | 251 | 0.0 | 0.0 | 0.00 | 0.00 | 0.00 | 53 | 847.5 |
| 20260906150004 | 57 | 250 | 0.0 | 0.0 | 0.00 | 0.00 | 0.00 | 54 | 847.5 |
| 20260906145004 | 57 | 246 | 0.0 | 0.0 | 0.00 | 0.00 | 0.00 | 55 | 847.5 |
| 20260906144004 | 57 | 246 | 0.0 | 0.0 | 0.00 | 0.00 | 0.00 | 55 | 847.5 |
| 20260906143004 | 56 | 319 | 0.0 | 0.0 | 0.00 | 0.00 | 0.00 | 56 | 847.5 |
| 20260906142004 | 55 | 320 | 0.0 | 0.0 | 0.00 | 0.00 | 0.00 | 61 | 847.5 |
| 20260906140004 | 55 | 320 | 0.0 | 0.0 | 0.00 | 0.00 | 0.00 | 62 | 891.3 |
| 20260906134004 | 55 | 320 | 0.0 | 0.0 | 0.00 | 0.00 | 0.00 | 62 | 891.3 |
| 20260906133004 | 55 | 320 | 0.0 | 0.0 | 0.00 | 0.00 | 0.00 | 63 | 891.3 |
| 20260906131004 | 55 | 320 | 0.0 | 0.0 | 0.00 | 0.00 | 0.00 | 64 | 891.3 |
| 20260906125004 | 55 | 320 | 0.0 | 0.0 | 0.00 | 0.00 | 0.00 | 65 | 891.3 |
| 20260906123004 | 55 | 320 | 0.0 | 0.0 | 0.00 | 0.00 | 0.00 | 65 | 891.3 |
| 20260906122004 | 55 | 320 | 0.0 | 0.0 | 0.00 | 0.00 | 0.00 | 66 | 891.3 |
| 20260906121004 | 55 | 320 | 0.0 | 0.0 | 0.00 | 0.00 | 0.00 | 66 | 891.3 |
| 20260906113004 | 55 | 320 | 0.0 | 0.0 | 0.00 | 0.00 | 0.00 | 68 | 891.3 |
| 20260906112004 | 55 | 320 | 0.0 | 0.0 | 0.00 | 0.00 | 0.00 | 68 | 891.3 |
| 20260906111004 | 55 | 320 | 0.0 | 0.0 | 0.00 | 0.00 | 0.00 | 69 | 891.3 |
| 20260906110004 | 55 | 320 | 0.0 | 0.0 | 0.00 | 0.00 | 0.00 | 69 | 891.3 |
| 20260906104003 | 56 | 320 | 0.0 | 0.0 | 0.00 | 0.00 | 0.00 | 70 | 891.3 |
| 20260906103003 | 56 | 320 | 0.0 | 0.0 | 0.00 | 0.00 | 0.00 | 71 | 891.3 |
| 20260906102005 | 56 | 320 | 0.0 | 0.0 | 0.00 | 0.00 | 0.00 | 71 | 891.3 |
| 20260906101004 | 56 | 320 | 0.0 | 0.0 | 0.00 | 0.00 | 0.00 | 71 | 891.3 |
| 20260906100004 | 56 | 320 | 0.0 | 0.0 | 0.00 | 0.00 | 0.00 | 72 | 891.3 |
| 20260906095004 | 56 | 320 | 0.0 | 0.0 | 0.00 | 0.00 | 0.00 | 72 | 891.3 |
| 20260906094004 | 56 | 320 | 0.0 | 0.0 | 0.00 | 0.00 | 0.00 | 73 | 891.3 |
| 20260906093004 | 56 | 320 | 0.0 | 0.0 | 0.00 | 0.00 | 0.00 | 73 | 891.3 |
| 20260906092004 | 57 | 320 | 0.0 | 0.0 | 0.00 | 0.00 | 0.00 | 73 | 891.3 |
| 20260906090004 | 57 | 320 | 0.0 | 0.0 | 0.00 | 0.00 | 0.00 | 73 | 891.3 |
| 20260906085004 | 58 | 320 | 0.0 | 0.0 | 0.00 | 0.00 | 0.00 | 73 | 891.3 |
| 20260906084004 | 58 | 320 | 0.0 | 0.0 | 0.00 | 0.00 | 0.00 | 74 | 891.3 |
| 20260906083004 | 58 | 320 | 0.0 | 0.0 | 0.00 | 0.00 | 0.00 | 74 | 891.3 |
| 20260906082004 | 59 | 320 | 0.0 | 0.0 | 0.00 | 0.00 | 0.00 | 74 | 891.3 |
| 20260906080004 | 59 | 320 | 0.0 | 0.0 | 0.00 | 0.00 | 0.00 | 75 | 891.3 |
| 20260906075004 | 59 | 320 | 0.0 | 0.0 | 0.00 | 0.00 | 0.00 | 75 | 891.3 |
| 20260906074004 | 60 | 320 | 0.0 | 0.0 | 0.00 | 0.00 | 0.00 | 75 | 891.3 |
| 20260906073004 | 60 | 320 | 0.0 | 0.0 | 0.00 | 0.00 | 0.00 | 75 | 891.3 |
| 20260906072004 | 60 | 320 | 0.0 | 0.0 | 0.00 | 0.00 | 0.00 | 75 | 891.3 |
| 20260906071004 | 60 | 320 | 0.0 | 0.0 | 0.00 | 0.00 | 0.00 | 75 | 891.3 |
| 20260906065004 | 61 | 320 | 0.0 | 0.0 | 0.00 | 0.00 | 0.00 | 75 | 891.3 |
| 20260906064004 | 62 | 320 | 0.0 | 0.0 | 0.00 | 0.00 | 0.00 | 75 | 891.3 |
| 20260906062004 | 62 | 320 | 0.0 | 0.0 | 0.00 | 0.00 | 0.00 | 75 | 891.3 |
| 20260906061004 | 63 | 320 | 0.0 | 0.0 | 0.00 | 0.00 | 0.00 | 75 | 891.3 |
| 20260906060004 | 63 | 320 | 0.0 | 0.0 | 0.00 | 0.00 | 0.00 | 75 | 891.3 |
| 20260906055004 | 63 | 320 | 0.0 | 0.0 | 0.00 | 0.00 | 0.00 | 75 | 891.3 |
| 20260906054003 | 64 | 320 | 0.0 | 0.0 | 0.00 | 0.00 | 0.00 | 75 | 891.3 |
| 20260906053004 | 64 | 320 | 0.0 | 0.0 | 0.00 | 0.00 | 0.00 | 75 | 891.3 |
| 20260906052003 | 65 | 320 | 0.0 | 0.0 | 0.00 | 0.00 | 0.00 | 75 | 891.3 |
| 20260906051004 | 65 | 320 | 0.0 | 0.0 | 0.00 | 0.00 | 0.00 | 74 | 891.3 |
| 20260906050004 | 65 | 309 | 0.0 | 0.0 | 0.00 | 0.00 | 0.00 | 73 | 891.3 |
| 20260906045004 | 66 | 284 | 0.0 | 0.0 | 0.00 | 0.00 | 0.00 | 72 | 891.3 |
| 20260906043004 | 67 | 275 | 0.0 | 0.0 | 0.00 | 0.00 | 0.00 | 71 | 905.8 |
| 20260906042004 | 67 | 275 | 0.0 | 0.0 | 0.00 | 0.00 | 0.00 | 70 | 915.3 |
| 20260906040004 | 68 | 287 | 0.0 | 0.0 | 0.00 | 0.00 | 0.00 | 69 | 913.7 |
| 20260906035004 | 69 | 288 | 0.0 | 0.0 | 0.00 | 0.00 | 0.00 | 68 | 913.7 |
| 20260906033004 | 70 | 269 | 0.0 | 0.0 | 0.00 | 0.00 | 0.00 | 65 | 932.5 |
| 20260906030003 | 72 | 308 | 0.0 | 0.0 | 0.00 | 0.00 | 0.00 | 61 | 932.5 |
| 20260906025004 | 73 | 291 | 0.0 | 0.0 | 0.00 | 0.00 | 0.00 | 60 | 932.5 |
| 20260906024003 | 74 | 311 | 0.0 | 1.0 | 0.00 | 0.00 | 0.00 | 58 | 932.9 |
| 20260906023003 | 75 | 318 | 2.0 | 9.0 | 0.00 | 0.00 | 0.00 | 56 | 932.9 |
| 20260906022004 | 76 | 294 | 0.0 | 7.0 | 0.00 | 0.00 | 0.00 | 55 | 932.9 |
| 20260906021004 | 77 | 302 | 3.0 | 12.0 | 0.00 | 0.00 | 0.00 | 53 | 932.9 |
| 20260906020004 | 78 | 306 | 0.0 | 10.0 | 0.00 | 0.00 | 0.00 | 51 | 899.8 |
| 20260906015004 | 78 | 294 | 3.0 | 7.0 | 0.00 | 0.00 | 0.00 | 50 | 899.8 |
| 20260906014003 | 79 | 306 | 2.0 | 9.0 | 0.00 | 0.00 | 0.00 | 48 | 899.8 |
| 20260906013004 | 80 | 292 | 1.0 | 7.0 | 0.00 | 0.00 | 0.00 | 47 | 899.8 |
| 20260906012003 | 81 | 273 | 1.0 | 10.0 | 0.00 | 0.00 | 0.00 | 46 | 871.4 |
| 20260906011003 | 81 | 296 | 1.0 | 9.0 | 0.00 | 0.00 | 0.00 | 44 | 868.9 |
| 20260906010004 | 82 | 333 | 0.0 | 12.0 | 0.00 | 0.00 | 0.00 | 43 | 855.6 |
| 20260906005003 | 83 | 302 | 4.0 | 10.0 | 0.00 | 0.00 | 0.00 | 41 | 855.6 |
| 20260906004004 | 84 | 303 | 3.0 | 9.0 | 0.00 | 0.00 | 0.00 | 39 | 855.6 |
| 20260906003004 | 85 | 286 | 1.0 | 12.0 | 0.00 | 0.00 | 0.00 | 37 | 855.6 |
| 20260906001003 | 87 | 306 | 2.0 | 12.0 | 0.00 | 0.00 | 0.00 | 35 | 855.6 |
| 20260905235004 | 88 | 287 | 4.0 | 12.0 | 0.00 | 0.00 | 0.00 | 32 | 855.6 |
| 20260905233003 | 88 | 323 | 3.0 | 14.0 | 0.00 | 0.00 | 0.00 | 31 | 855.6 |